Location: Newark
(49.2191°N, 12.6671°E)
Time: 11:53:08
(UTC+00:00)

A-11 Canister half - All Passes

Search period start: 22 January 2020 00:00
Search period end: 01 February 2020 00:00
Orbit: 1517 x 1683 km, 47.2° (Epoch: 21 January)

Date Brightness Start Highest point End Pass type
(mag) Time Alt. Az. Time Alt. Az. Time Alt. Az.
22 Jan - 01:58:31 10° WSW 02:07:49 79° S 02:17:06 10° E visible
22 Jan - 04:03:18 10° W 04:12:28 69° SSW 04:21:43 10° ESE visible
22 Jan - 06:08:17 10° W 06:16:20 35° SW 06:24:31 10° SSE visible
22 Jan - 21:31:26 10° S 21:37:24 19° SE 21:43:17 10° E night (unlit)
22 Jan - 23:31:41 10° SW 23:40:35 50° SSE 23:49:23 10° ENE visible
23 Jan - 01:35:37 10° WSW 01:44:55 78° S 01:54:11 10° E visible
23 Jan - 03:40:24 10° W 03:49:35 70° SSW 03:58:50 10° ESE visible
23 Jan - 05:45:21 10° W 05:53:31 37° SW 06:01:48 10° SSE visible
23 Jan - 21:09:00 10° SSE 21:14:37 18° SE 21:20:10 10° E night (unlit)
23 Jan - 23:08:53 10° SW 23:17:44 49° SSE 23:26:28 10° ENE night (unlit)
24 Jan - 01:12:43 10° WSW 01:22:01 78° S 01:31:16 10° E visible
24 Jan - 03:17:30 10° W 03:26:42 72° SSW 03:35:58 10° ESE visible
24 Jan - 05:22:24 10° WNW 05:30:41 38° SW 05:39:04 10° SSE visible
24 Jan - 07:31:22 10° WSW 07:33:24 11° WSW 07:35:27 10° SW daylight
24 Jan - 20:46:37 10° SSE 20:51:50 16° SE 20:57:00 10° E night (unlit)
24 Jan - 22:46:05 10° SW 22:54:53 47° SSE 23:03:33 10° ENE night (unlit)
25 Jan - 00:49:49 10° WSW 00:59:07 77° S 01:08:23 10° E visible
25 Jan - 02:54:35 10° W 03:03:49 73° SSW 03:13:04 10° ESE visible
25 Jan - 04:59:29 10° WNW 05:07:51 40° SW 05:16:20 10° SSE visible
25 Jan - 07:07:33 10° WSW 07:10:39 12° SW 07:13:46 10° SW daylight
25 Jan - 20:24:17 10° SSE 20:29:04 15° SE 20:33:47 10° E night (unlit)
25 Jan - 22:23:18 10° SW 22:32:03 45° SE 22:40:38 10° ENE night (unlit)
26 Jan - 00:26:54 10° WSW 00:36:14 76° S 00:45:28 10° E visible
26 Jan - 02:31:41 10° W 02:40:56 74° SSW 02:50:11 10° ESE visible
26 Jan - 04:36:34 10° WNW 04:45:01 42° SW 04:53:34 10° SSE visible
26 Jan - 06:44:03 10° W 06:47:53 13° SW 06:51:45 10° SSW daylight
26 Jan - 20:02:03 10° SSE 20:06:17 14° SE 20:10:29 10° E night (unlit)
26 Jan - 22:00:31 10° SSW 22:09:13 43° SE 22:17:44 10° ENE night (unlit)
27 Jan - 00:04:00 10° WSW 00:13:21 75° SSE 00:22:34 10° E visible
27 Jan - 02:08:47 10° W 02:18:02 76° SSW 02:27:17 10° ESE visible
27 Jan - 04:13:38 10° WNW 04:22:11 44° SW 04:30:49 10° SSE visible
27 Jan - 06:20:42 10° W 06:25:07 14° SW 06:29:34 10° SSW daylight
27 Jan - 19:39:56 10° SSE 19:43:31 13° SE 19:47:04 10° ESE night (unlit)
27 Jan - 21:37:45 10° SSW 21:46:22 41° SE 21:54:49 10° ENE night (unlit)
27 Jan - 23:41:07 10° WSW 23:50:27 74° SSE 23:59:40 10° E visible
28 Jan - 01:45:52 10° W 01:55:09 77° S 02:04:24 10° ESE visible
28 Jan - 03:50:43 10° WNW 03:59:21 46° SSW 04:08:03 10° SE visible
28 Jan - 05:57:27 10° W 06:02:21 16° SW 06:07:18 10° SSW visible
28 Jan - 19:18:01 10° SE 19:20:45 11° ESE 19:23:28 10° ESE visible
28 Jan - 21:15:00 10° SSW 21:23:32 39° SE 21:31:54 10° ENE night (unlit)
28 Jan - 23:18:13 10° WSW 23:27:34 72° SSE 23:36:47 10° E night (unlit)
29 Jan - 01:22:57 10° W 01:32:16 77° S 01:41:31 10° ESE visible
29 Jan - 03:27:48 10° WNW 03:36:31 48° SSW 03:45:15 10° SE visible
29 Jan - 05:34:14 10° W 05:39:34 17° SW 05:44:57 10° SSW visible
29 Jan - 18:56:38 10° SE 18:58:00 10° ESE 18:59:20 10° ESE visible
29 Jan - 20:52:15 10° SSW 21:00:42 37° SE 21:08:58 10° ENE visible
29 Jan - 22:55:19 10° WSW 23:04:41 71° SSE 23:13:52 10° E night (unlit)
30 Jan - 01:00:02 10° W 01:09:22 78° S 01:18:37 10° ESE visible
30 Jan - 03:04:54 10° WNW 03:13:40 50° SSW 03:22:28 10° SE visible
30 Jan - 05:11:06 10° W 05:16:48 18° SW 05:22:33 10° SSW visible
30 Jan - 20:29:31 10° SSW 20:37:53 36° SE 20:46:03 10° E visible
30 Jan - 22:32:25 10° WSW 22:41:48 70° SSE 22:51:00 10° E night (unlit)
31 Jan - 00:37:07 10° W 00:46:29 79° S 00:55:44 10° ESE visible
31 Jan - 02:41:58 10° WNW 02:50:50 52° SSW 02:59:40 10° SE visible
31 Jan - 04:47:59 10° W 04:54:01 20° SW 05:00:06 10° S visible
31 Jan - 20:06:47 10° SSW 20:15:03 34° SE 20:23:06 10° E visible
31 Jan - 22:09:32 10° WSW 22:18:55 68° SSE 22:28:06 10° E night (unlit)
